sat.trackr.live / text

‹ back to catalog

STARLINK-1810

NORAD 46709 · 2020-073AR

PAYLOAD ACTIVE UNKNOWN

§ Identity

Operator
Country
US
Launch date
2020-10-18
Launch site
AFETR
Launch vehicle
Mass (kg)
RCS (m²)

Purposes: comms

External: N2YO · Heavens-Above · Gunter

§ Orbital elements

Epoch: 2026-05-24T22:03:32.150304Z

Period
92.29 min
Inclination
53.0415°
Eccentricity
0.0006101
Mean motion
15.60263848 rev/d
Perigee alt
382.8 km
Apogee alt
391.0 km
Semi-major
6,765.0 km
B*
1.0302e-3
RAAN
224.0964°
Arg perigee
350.5122°
Mean anomaly
9.5774°
Rev number
30,911

§ Raw data

STARLINK-18101 46709U 20073AR  26144.91912211  .00086130  00000+0  10302-2 0  99962 46709  53.0415 224.0964 0006101 350.5122   9.5774 15.60263848309118

JSON: /api/v1/satellites/46709 · /tle

For live sub-satellite position, see the globe view (requires WebGL).

§ Visibility from observer

Set your observer location to see the next 7 days of passes ≥ 10°. The values pass through the URL so the page stays shareable.

No JS? Fill the form by hand. The geolocation button needs JavaScript.